Weather History for Deadhorse, AK

Change the Weather History Date:

Tuesday, November 26, 2013

  Actual Average Record
Temperature  
Mean Temperature -4 °F -  
Max Temperature 1 °F 2 °F 28 °F (2002)
Min Temperature -9 °F -6 °F -42 °F (1988)
Degree Days  
Heating Degree Days 68    
Moisture  
Dew Point -9 °F    
Average Humidity 81    
Maximum Humidity 84    
Minimum Humidity 77    
Precipitation  
Precipitation 0.00 in - - ()
Sea Level Pressure  
Sea Level Pressure 30.22 in    
Wind  
Wind Speed 13 mph (ENE)    
Max Wind Speed 17 mph    
Max Gust Speed -    
Visibility 7 miles    
Events      
Averages and records for this station are not official NWS values.
T = Trace of Precipitation, MM = Missing Value Source: NWS Daily Summary

Daily Weather History Graph

Daily Weather History Graph

Search for Another Location

Airport:

Trip Planner

Search our weather history database for the weather conditions in past years. The results will help you decide how hot, cold, wet, or windy it might be!

Date:

Astronomy

Nov. 26, 2013 Rise Set
Actual Time 12:08 PM AKST 1:13 PM AKST
Civil Twilight 9:51 AM AKST 3:29 PM AKST
Nautical Twilight 8:18 AM AKST 5:03 PM AKST
Astronomical Twilight 7:02 AM AKST 6:19 PM AKST
Moon 12:37 AM AKST (11/26) 1:51 PM AKST (11/26)
Length of Visible Light 5h 37m
Length of Day
1h 04m
Last Quarter, 40% of the Moon is Illuminated
Nov 26
Last Quarter
Dec 2
New
Dec 9
First Quarter
Dec 17
Full
Dec 25
Last Quarter

Hourly Weather History & Observations

Time (AKST) Temp. Windchill Dew Point Humidity Pressure Visibility Wind Dir Wind Speed Gust Speed Precip Events Conditions
12:53 AM 1.0 °F -15.8 °F -2.9 °F 83% 30.32 in 6.0 mi NE 11.5 mph - N/A   Overcast
1:53 AM -2.9 °F -19.8 °F -7.1 °F 82% 30.31 in 10.0 mi NE 10.4 mph - N/A   Mostly Cloudy
2:53 AM -5.1 °F -24.3 °F -9.0 °F 83% 30.31 in 10.0 mi NE 12.7 mph - N/A   Scattered Clouds
3:44 AM -5.8 °F -26.0 °F -9.4 °F 84% 30.29 in 6.0 mi NE 13.8 mph - N/A   Mostly Cloudy
3:53 AM -5.1 °F -24.3 °F -9.9 °F 80% 30.30 in 7.0 mi NE 12.7 mph - N/A   Mostly Cloudy
4:53 AM -6.0 °F -26.3 °F -9.9 °F 83% 30.29 in 7.0 mi NE 13.8 mph - N/A   Overcast
5:32 AM -7.6 °F -28.3 °F -11.2 °F 84% 30.28 in 10.0 mi NE 13.8 mph - N/A   Scattered Clouds
5:53 AM -7.1 °F -26.8 °F -11.0 °F 83% 30.28 in 7.0 mi NE 12.7 mph - N/A   Mostly Cloudy
6:07 AM -7.6 °F -28.3 °F -11.2 °F 84% 30.28 in 6.0 mi NE 13.8 mph - N/A   Scattered Clouds
6:53 AM -7.1 °F -28.4 °F -11.9 °F 79% 30.28 in 7.0 mi NE 15.0 mph - N/A   Partly Cloudy
7:53 AM -8.0 °F -28.8 °F -11.9 °F 83% 30.27 in 7.0 mi NE 13.8 mph - N/A   Clear
8:46 AM -7.6 °F -28.3 °F -13.0 °F 77% 30.25 in 7.0 mi NE 13.8 mph - N/A   Partly Cloudy
8:53 AM -8.0 °F -28.8 °F -13.0 °F 79% 30.25 in 7.0 mi NE 13.8 mph - N/A   Partly Cloudy
9:53 AM -8.0 °F -29.6 °F -11.9 °F 83% 30.25 in 3.0 mi NE 15.0 mph - N/A   Scattered Clouds
10:50 AM -5.8 °F -26.8 °F -11.2 °F 77% 30.24 in 2.5 mi NE 15.0 mph - N/A   Mostly Cloudy
10:53 AM -6.0 °F -27.7 °F -11.0 °F 79% 30.25 in 3.0 mi NE 16.1 mph - N/A   Mostly Cloudy
11:53 AM -2.9 °F -22.4 °F -8.0 °F 79% 30.23 in 5.0 mi NE 13.8 mph - N/A   Overcast
12:53 PM -0.0 °F -19.4 °F -5.1 °F 79% 30.21 in 5.0 mi NE 15.0 mph - N/A   Overcast
1:53 PM -0.0 °F -19.4 °F -4.0 °F 83% 30.19 in 6.0 mi ENE 15.0 mph - N/A   Overcast
2:53 PM 1.9 °F -12.9 °F -2.0 °F 83% 30.18 in 10.0 mi East 9.2 mph - 0.00 in   Overcast
3:53 PM 1.9 °F -15.5 °F -2.0 °F 83% 30.17 in 9.0 mi ESE 12.7 mph - N/A   Overcast
4:53 PM 1.9 °F -18.1 °F -2.0 °F 83% 30.15 in 8.0 mi East 17.3 mph - N/A   Overcast
5:53 PM -0.9 °F -19.9 °F -6.0 °F 79% 30.14 in 7.0 mi ESE 13.8 mph - N/A   Overcast
6:53 PM -2.9 °F -20.8 °F -7.1 °F 82% 30.13 in 10.0 mi ESE 11.5 mph - N/A   Overcast
7:53 PM -2.9 °F -20.8 °F -8.0 °F 79% 30.11 in 10.0 mi ESE 11.5 mph - N/A   Overcast
8:53 PM -2.0 °F -16.6 °F -6.0 °F 83% 30.10 in 10.0 mi ESE 8.1 mph - N/A   Overcast
9:53 PM -2.0 °F -23.3 °F -7.1 °F 79% 30.09 in 9.0 mi East 17.3 mph - N/A   Overcast
10:53 PM -7.1 °F -25.9 °F -11.0 °F 83% 30.08 in 10.0 mi ESE 11.5 mph - N/A   Overcast
11:53 PM -9.9 °F -24.9 °F -15.0 °F 78% 30.07 in 10.0 mi ESE 6.9 mph - N/A   Overcast